Weather History for Fredericksburg, TX

Change the Weather History Date:

Saturday, October 12, 2013

  Actual Average (KSAT) Record (KSAT)
Temperature  
Mean Temperature 79 °F 72 °F  
Max Temperature 86 °F 83 °F 99 °F (1991)
Min Temperature 72 °F 61 °F 41 °F (1946)
Degree Days  
Heating Degree Days 0 1  
Month to date heating degree days 1  
Since 1 July heating degree days 3  
Cooling Degree Days 14 8  
Month to date cooling degree days 108  
Year to date cooling degree days 2942  
Growing Degree Days 29 (Base 50)    
Moisture  
Dew Point 69 °F    
Average Humidity 76    
Maximum Humidity 93    
Minimum Humidity 53    
Precipitation  
Precipitation 0.00 in 0.15 in 1.80 in (1986)
Month to date precipitation 1.55  
Year to date precipitation 25.52  
Snow  
Snow 0.00 in - - ()
Month to date snowfall  
Since 1 July snowfall  
Since 1 September snowfall  
Snow Depth -    
Sea Level Pressure  
Sea Level Pressure 30.00 in    
Wind  
Wind Speed 6 mph (SSE)    
Max Wind Speed 12 mph    
Max Gust Speed 16 mph    
Visibility 10 miles    
Events Rain    
T = Trace of Precipitation, MM = Missing Value Source: NWS Daily Summary

Daily Weather History Graph

Daily Weather History Graph

Search for Another Location

Airport:

Trip Planner

Search our weather history database for the weather conditions in past years. The results will help you decide how hot, cold, wet, or windy it might be!

Date:

Astronomy

Oct. 12, 2013 Rise Set
Actual Time 7:35 AM CDT 7:07 PM CDT
Civil Twilight 7:11 AM CDT 7:31 PM CDT
Nautical Twilight 6:43 AM CDT 7:59 PM CDT
Astronomical Twilight 6:16 AM CDT 8:27 PM CDT
Moon 2:54 PM CDT (10/12) 1:07 AM CDT (10/12)
Length of Visible Light 12h 19m
Length of Day
11h 31m
First Quarter, 59% of the Moon is Illuminated
Oct 12
First Quarter
Oct 18
Full
Oct 26
Last Quarter
Nov 3
New
Nov 9
First Quarter

Hourly Weather History & Observations

Time (CDT) Temp. Heat Index Dew Point Humidity Pressure Visibility Wind Dir Wind Speed Gust Speed Precip Events Conditions
12:15 AM 75.7 °F - 71.1 °F 85% 29.94 in 10.0 mi SSE 6.9 mph - N/A   Overcast
12:35 AM 75.2 °F - 70.9 °F 86% 29.94 in 10.0 mi SSE 6.9 mph - N/A   Scattered Clouds
12:55 AM 75.2 °F - 70.9 °F 86% 29.94 in 10.0 mi SSE 4.6 mph - N/A   Mostly Cloudy
1:15 AM 75.4 °F - 71.1 °F 86% 29.94 in 10.0 mi South 4.6 mph - N/A   Overcast
1:35 AM 75.6 °F - 71.1 °F 86% 29.94 in 10.0 mi South 8.1 mph - N/A   Overcast
1:55 AM 75.6 °F - 71.1 °F 86% 29.95 in 10.0 mi South 9.2 mph - N/A   Overcast
2:15 AM 75.6 °F - 71.2 °F 86% 29.95 in 10.0 mi South 5.8 mph - N/A   Overcast
2:35 AM 75.4 °F - 71.2 °F 87% 29.95 in 10.0 mi South 8.1 mph - N/A   Overcast
2:55 AM 75.2 °F - 71.2 °F 87% 29.95 in 10.0 mi South 5.8 mph - N/A   Overcast
3:15 AM 74.7 °F - 71.6 °F 90% 29.95 in 10.0 mi South 6.9 mph - N/A Rain Rain
3:35 AM 74.3 °F - 71.6 °F 91% 29.95 in 10.0 mi South 5.8 mph - N/A   Overcast
3:55 AM 74.3 °F - 71.6 °F 91% 29.94 in 10.0 mi South 3.5 mph - N/A   Overcast
4:15 AM 74.3 °F - 71.2 °F 90% 29.95 in 10.0 mi South 5.8 mph - N/A   Mostly Cloudy
4:35 AM 74.3 °F - 71.1 °F 90% 29.95 in 10.0 mi South 4.6 mph - N/A   Scattered Clouds
4:55 AM 74.3 °F - 70.9 °F 89% 29.95 in 10.0 mi Calm Calm - N/A   Mostly Cloudy
5:15 AM 73.6 °F - 70.7 °F 91% 29.95 in 10.0 mi Calm Calm - N/A   Mostly Cloudy
5:35 AM 73.4 °F - 70.7 °F 91% 29.96 in 10.0 mi South 3.5 mph - N/A   Mostly Cloudy
6:15 AM 73.4 °F - 70.7 °F 91% 29.98 in 7.0 mi East 3.5 mph - N/A   Overcast
6:35 AM 72.7 °F - 70.3 °F 92% 29.98 in 7.0 mi Calm Calm - N/A   Mostly Cloudy
6:55 AM 72.3 °F - 70.2 °F 93% 29.99 in 7.0 mi Calm Calm - N/A   Mostly Cloudy
7:15 AM 72.5 °F - 70.2 °F 92% 29.99 in 7.0 mi South 3.5 mph - N/A   Mostly Cloudy
7:35 AM 73.0 °F - 70.2 °F 91% 30.00 in 7.0 mi South 4.6 mph - N/A   Overcast
7:55 AM 72.9 °F - 70.0 °F 91% 30.00 in 7.0 mi Calm Calm - N/A   Mostly Cloudy
8:15 AM 72.7 °F - 70.3 °F 92% 30.01 in 5.0 mi Calm Calm - N/A   Mostly Cloudy
8:35 AM 73.4 °F - 70.7 °F 91% 30.02 in 7.0 mi SE 3.5 mph - N/A   Overcast
8:55 AM 74.7 °F - 70.3 °F 86% 30.03 in 10.0 mi SSE 5.8 mph - N/A   Overcast
9:15 AM 74.5 °F - 69.8 °F 85% 30.04 in 10.0 mi SSE 5.8 mph - N/A   Overcast
9:35 AM 74.8 °F - 69.4 °F 83% 30.04 in 10.0 mi SSE 5.8 mph - N/A   Overcast
9:55 AM 75.9 °F - 69.4 °F 80% 30.05 in 10.0 mi South 3.5 mph - N/A   Overcast
10:15 AM 77.0 °F - 69.4 °F 77% 30.05 in 10.0 mi SSE 4.6 mph - N/A   Mostly Cloudy
10:35 AM 77.5 °F - 69.1 °F 75% 30.05 in 10.0 mi South 5.8 mph - N/A   Scattered Clouds
10:55 AM 78.3 °F - 69.1 °F 73% 30.05 in 10.0 mi SSE 4.6 mph - N/A   Scattered Clouds
11:15 AM 79.3 °F - 69.1 °F 71% 30.05 in 10.0 mi South 4.6 mph - N/A   Scattered Clouds
11:35 AM 79.5 °F - 68.9 °F 70% 30.05 in 10.0 mi South 6.9 mph - N/A   Mostly Cloudy
11:55 AM 80.8 °F 83.6 °F 68.4 °F 66% 30.05 in 10.0 mi South 6.9 mph - N/A   Mostly Cloudy
12:15 PM 81.3 °F 84.5 °F 68.9 °F 66% 30.05 in 10.0 mi SE 9.2 mph - N/A   Overcast
12:35 PM 81.1 °F 84.0 °F 68.4 °F 65% 30.04 in 10.0 mi SSE 6.9 mph - N/A   Mostly Cloudy
12:55 PM 81.9 °F 85.2 °F 69.1 °F 65% 30.04 in 10.0 mi SSE 8.1 mph - N/A   Mostly Cloudy
1:15 PM 81.7 °F 84.9 °F 68.9 °F 65% 30.02 in 10.0 mi SSW 9.2 mph - N/A   Mostly Cloudy
1:35 PM 84.0 °F 87.3 °F 68.4 °F 59% 30.02 in 10.0 mi South 10.4 mph - N/A   Scattered Clouds
1:55 PM 84.0 °F 87.3 °F 68.2 °F 59% 30.01 in 10.0 mi South 9.2 mph - N/A   Scattered Clouds
2:15 PM 83.8 °F 87.5 °F 69.3 °F 61% 30.00 in 10.0 mi SSE 6.9 mph 16.1 mph N/A   Scattered Clouds
2:35 PM 83.7 °F 87.5 °F 69.4 °F 62% 29.99 in 10.0 mi SSW 11.5 mph - N/A   Scattered Clouds
2:55 PM 84.0 °F 87.8 °F 69.3 °F 61% 29.99 in 10.0 mi South 9.2 mph - N/A   Scattered Clouds
3:15 PM 84.6 °F 88.5 °F 69.3 °F 60% 29.98 in 10.0 mi South 9.2 mph - N/A   Clear
3:35 PM 85.6 °F 88.8 °F 67.8 °F 55% 29.98 in 10.0 mi South 5.8 mph - N/A   Scattered Clouds
3:55 PM 84.7 °F 87.9 °F 68.0 °F 57% 29.97 in 10.0 mi South 8.1 mph - N/A   Clear
4:15 PM 85.3 °F 88.8 °F 68.7 °F 57% 29.97 in 10.0 mi South 11.5 mph - N/A   Scattered Clouds
4:35 PM 86.0 °F 89.4 °F 68.0 °F 55% 29.97 in 10.0 mi SSE 6.9 mph - N/A   Clear
4:55 PM 85.6 °F 89.1 °F 68.4 °F 56% 29.97 in 10.0 mi South 10.4 mph - N/A   Scattered Clouds
5:15 PM 85.8 °F 88.5 °F 66.9 °F 53% 29.97 in 10.0 mi SSE 9.2 mph - N/A   Scattered Clouds
5:35 PM 85.6 °F 89.1 °F 68.2 °F 56% 29.97 in 10.0 mi SSE 9.2 mph - N/A   Mostly Cloudy
5:55 PM 84.4 °F 87.6 °F 68.0 °F 58% 29.97 in 10.0 mi SSE 9.2 mph - N/A   Scattered Clouds
6:15 PM 83.5 °F 86.2 °F 67.3 °F 58% 29.97 in 10.0 mi SSE 9.2 mph - N/A   Clear
6:35 PM 83.3 °F 86.2 °F 67.6 °F 59% 29.98 in 10.0 mi South 5.8 mph - N/A   Clear
6:55 PM 82.2 °F 84.9 °F 67.6 °F 61% 29.98 in 10.0 mi SSE 4.6 mph - N/A   Clear
7:15 PM 81.5 °F 84.1 °F 67.5 °F 62% 29.99 in 10.0 mi SSE 3.5 mph - N/A   Clear
7:35 PM 80.6 °F 83.1 °F 67.5 °F 64% 29.99 in 10.0 mi Calm Calm - N/A   Clear
7:55 PM 79.7 °F - 67.6 °F 66% 30.00 in 10.0 mi SE 3.5 mph - N/A   Clear
8:15 PM 79.2 °F - 68.0 °F 69% 30.02 in 10.0 mi Calm Calm - N/A   Clear
8:35 PM 78.6 °F - 68.0 °F 70% 30.02 in 10.0 mi Calm Calm - N/A   Clear
8:55 PM 77.0 °F - 68.0 °F 74% 30.03 in 10.0 mi Calm Calm - N/A   Clear
9:15 PM 77.0 °F - 67.6 °F 73% 30.04 in 10.0 mi SE 3.5 mph - N/A   Clear
9:35 PM 75.9 °F - 67.8 °F 76% 30.04 in 10.0 mi SSE 4.6 mph - N/A   Clear
9:55 PM 76.1 °F - 68.9 °F 78% 30.04 in 10.0 mi SSE 4.6 mph - N/A   Clear
10:15 PM 76.1 °F - 69.4 °F 80% 30.04 in 10.0 mi SE 4.6 mph - N/A   Clear
10:35 PM 76.1 °F - 69.8 °F 81% 30.05 in 10.0 mi SE 4.6 mph - N/A   Scattered Clouds
10:55 PM 76.1 °F - 70.2 °F 82% 30.04 in 10.0 mi SE 4.6 mph - N/A   Mostly Cloudy
11:15 PM 75.6 °F - 70.7 °F 85% 30.05 in 10.0 mi SSE 6.9 mph - N/A   Scattered Clouds
11:35 PM 75.7 °F - 70.7 °F 84% 30.06 in 10.0 mi SE 5.8 mph - N/A   Mostly Cloudy
11:55 PM 75.6 °F - 70.3 °F 84% 30.06 in 10.0 mi SE 6.9 mph - N/A   Overcast